Vertical_Velocity
-1 0 1 -0 0 0 0 -2 -1 -1 -1 -0 3 -1 -1 1 1 -3 -1 1 -1 -0 -1 -0 0 1 1 2 2 2 3 4 5 3 2 5 6 5 4 2 2 3 3 0 1 2 1 2 3
-0 1 -1 2 -2 -0 -2 -2 -1 -1 -0 0 -1 -1 -1 0 2 1 1 1 2 2 2 1 0 0 0 1 1 1 0 1 0 2 4 4 3 5 6 6 3 3 3 3 2 2 2 2 -0
-1 2 2 1 -0 -1 -1 -1 -2 -2 -2 -1 -1 -0 0 0 2 2 2 -0 -0 1 -0 -1 -0 -0 -1 1 1 1 1 1 0 1 3 3 3 4 3 4 7 5 4 4 3 3 3 1 1
-0 1 -1 -2 0 -1 -0 -1 -1 -1 -3 0 2 2 1 0 1 1 1 2 -0 0 2 2 -0 0 -2 -3 -2 -0 0 1 2 2 1 2 2 2 4 4 3 4 5 4 3 3 4 3 3
3 4 2 1 0 0 -0 1 0 -1 2 1 -2 1 1 -0 1 2 -1 -0 2 3 0 0 1 -2 0 3 4 2 0 -2 -4 -4 -2 -2 1 2 2 2 3 5 3 4 6 3 3 4 3
1 1 -1 -1 0 0 0 -0 0 -0 -0 2 0 2 2 3 1 -1 0 1 1 -1 -1 1 3 3 2 0 -2 -1 -2 -2 0 0 -1 1 1 -0 -0 0 1 2 3 3 2 4 4 3 3
-1 -0 -0 -2 -1 -2 -1 -0 1 2 4 3 3 5 4 4 2 -1 2 1 1 2 1 1 1 0 -0 -2 -2 -3 -2 2 -2 -1 2 -0 -0 -1 0 1 1 1 1 2 3 3 3 2 4
-2 2 -0 -1 -3 -3 -3 -0 1 -3 -3 -0 2 1 2 2 -1 2 2 2 1 0 1 -2 -1 -2 -1 1 -0 2 3 3 5 4 -2 0 1 -0 1 1 1 -0 -1 -0 1 2 2 4 3
-2 -0 -2 -2 -4 -3 0 1 -6 -4 -5 5 2 2 2 3 4 0 3 4 2 2 -1 -2 -4 -5 -4 -2 -3 -3 -0 1 -2 6 13 2 -6 2 -1 -0 2 -0 -1 -2 -2 -1 0 1 1
-1 -1 -2 -2 -2 2 4 2 -3 7 3 -0 -0 1 1 -0 3 2 4 6 4 2 1 -2 0 -1 0 -1 9 -2 4 3 0 -3 0 -3 27 5 -2 -1 -6 -0 3 0 -1 -1 -1 -1 3
1 -0 -4 -4 -3 1 2 -12 3 1 -2 0 3 2 1 2 2 3 2 2 -0 -0 -1 1 1 1 1 -2 -2 6 10 13 5 13 0 7 -6 2 11 -1 -2 0 -3 -0 -1 -1 -2 -3 -1
-0 2 -1 4 -2 2 2 -8 -0 -0 2 3 -2 -0 3 5 2 -1 -2 0 -1 3 0 -2 -0 2 1 1 2 1 3 0 2 1 -1 3 9 5 9 59 5 -0 3 4 3 3 0 0 -0
1 -3 -4 -0 -1 1 -3 -9 -3 -1 -1 -3 0 1 3 0 -2 -2 -3 -2 -1 -3 -0 -1 -1 -2 -2 -2 -1 0 3 7 1 -3 -1 -2 -4 0 -5 -4 17 26 2 -1 -6 -3 0 3 1
0 -6 -2 -1 -3 1 -2 -1 -2 -4 -1 1 -0 2 -2 -5 -3 -3 -2 -2 -4 -7 -5 -3 -5 -6 -3 -2 -1 -2 -4 -3 3 4 -0 -4 -0 2 3 2 -0 2 23 14 7 0 -8 -0 3
-2 -5 0 -3 -0 -1 2 -1 -6 -3 0 0 2 -1 -2 -0 -1 -4 -3 -1 0 -0 -0 -6 -6 -3 -7 -9 -3 -3 -2 -3 -4 -5 -2 1 -1 4 -3 -0 2 14 -6 57 26 -1 -7 -5 -2
2 -4 -3 -5 -1 8 5 -6 -10 -2 -1 -0 -2 -2 -3 -4 -3 2 3 2 2 1 1 3 2 -0 -2 -6 -5 -5 -1 -1 -1 -1 -4 -5 -4 -2 1 2 3 5 -1 -11 7 23 3 -10 -3
2 -3 -3 -9 6 5 2 2 -2 -0 -1 -3 0 -2 -1 0 2 0 1 -0 -2 -0 3 4 -0 -1 3 4 -1 -1 -5 -2 0 -5 -4 -4 -2 -1 -5 -1 -0 -0 7 9 -5 12 14 5 -9
-1 -2 -4 -11 0 1 4 5 2 0 0 1 1 0 0 0 1 -1 1 3 2 -1 -2 -4 -6 -4 -6 -2 -2 -0 -4 -2 -3 -1 1 -14 -4 -6 2 1 -2 -9 -1 -5 -4 -2 -14 5 14
-1 3 -6 -3 5 -2 -3 -1 -2 -1 0 2 1 -4 -2 3 -0 -0 -4 -7 -2 -6 -6 -4 3 4 3 3 6 8 9 7 6 7 7 7 -9 -9 -7 -2 2 1 -5 -5 -12 -1 -14 5 38
-0 1 -2 -5 1 4 2 1 1 1 3 3 -1 2 4 -1 -1 -2 -2 -2 -4 -4 1 2 -1 -1 3 4 7 5 -2 11 -0 -1 4 1 10 2 -4 -1 -0 2 1 1 -1 -13 -6 -3 -3
3 -2 3 -9 2 1 -2 0 -0 1 -0 -2 1 4 3 2 3 1 -0 0 -1 -0 -3 -1 -2 -7 -3 -3 1 3 4 -4 -2 7 1 2 -1 4 2 0 -1 1 3 6 0 -4 -10 -11 7
3 -0 2 0 -9 1 2 2 -1 0 -1 1 4 -0 3 -0 1 -6 -2 -0 1 -1 -4 -4 -5 -5 -5 -14 -9 -6 -21 -22 -19 -13 -3 -4 -2 -5 -4 -2 1 0 6 5 3 2 -7 -7 3
0 3 -1 1 4 -4 -3 -8 -1 2 -1 5 -3 -3 0 -2 -3 1 2 1 -4 -5 -6 -5 -8 -3 2 1 -4 -2 0 -8 -0 -2 2 -3 4 -7 -5 -2 2 -1 -0 4 6 -1 4 -6 -7
0 1 0 -0 -0 4 -2 -1 4 -5 1 -5 -3 -3 -3 1 3 1 -7 -8 -5 -8 -4 -1 2 4 3 0 -1 -2 -0 -6 -3 1 -4 -1 2 -3 -8 5 -5 -0 -0 -3 2 -0 -1 -3 -9
1 -0 0 2 1 0 -1 -7 -1 -6 -2 -1 1 3 0 -1 1 2 -3 2 3 3 5 6 3 -2 -5 -3 0 2 -5 1 3 -4 -3 -4 -3 1 -3 -1 -3 -5 -1 -2 -2 1 0 2 -1
2 1 1 -4 1 4 2 -11 9 2 1 -2 -3 -3 2 -2 -3 -7 -9 -10 -6 -5 -9 -11 -14 -6 -2 -1 -2 -4 -2 -0 -0 -4 -7 -8 -5 -0 -0 -1 3 5 0 1 0 -4 -2 -0 -3
2 4 2 -2 0 0 2 4 -0 1 -2 1 0 1 -4 -7 -5 -3 2 -0 -2 -4 -2 4 5 0 -2 -3 -6 5 2 2 -6 -4 -7 -1 -1 -2 -1 -3 -2 3 7 12 5 -6 -5 -1 -4
-0 2 -1 3 -8 -5 -1 -6 1 -1 -0 -2 -5 -2 3 2 3 -1 1 -0 1 0 -0 -5 -5 -2 1 -3 2 0 -3 -2 -5 -3 -1 -0 1 -0 1 0 -3 8 7 10 4 4 -0 1 -1
0 2 3 0 1 -7 -9 6 -0 -3 0 3 2 5 -0 -2 -2 -4 -4 -3 -0 -1 -3 4 -1 3 -0 -5 -5 3 0 -3 0 -4 1 0 1 1 1 2 -4 29 6 5 2 -2 2 1 -4
-0 1 2 -2 2 4 0 6 -0 -0 -2 -1 1 2 -5 -4 -8 -4 -4 1 0 -1 1 -2 -0 0 -6 -6 1 0 -2 -1 -1 -0 -0 -2 0 1 0 1 12 -0 -3 12 4 6 4 5 1
Height
5899 5900 5899 5898 5899 5896 5895 5894 5891 5890 5890 5891 5889 5888 5887 5885 5882 5882 5878 5877 5877 5875 5872 5870 5867 5865 5863 5862 5861 5860 5859 5859 5859 5858 5858 5859 5859 5858 5857 5857 5856 5856 5855 5855 5854 5854 5854 5854 5853
5901 5901 5900 5899 5899 5897 5895 5894 5892 5890 5891 5890 5888 5886 5884 5882 5880 5877 5875 5878 5878 5875 5873 5869 5866 5863 5861 5859 5858 5857 5857 5857 5856 5857 5857 5856 5856 5856 5856 5856 5855 5855 5854 5854 5853 5852 5852 5852 5852
5903 5903 5903 5900 5899 5898 5896 5894 5893 5890 5888 5887 5886 5887 5885 5881 5879 5877 5875 5873 5872 5872 5871 5868 5865 5862 5859 5857 5856 5855 5854 5854 5854 5854 5854 5853 5853 5853 5853 5853 5852 5852 5851 5851 5850 5850 5849 5848 5848
5904 5906 5905 5903 5902 5901 5898 5895 5894 5892 5889 5887 5886 5885 5883 5879 5878 5876 5875 5874 5871 5868 5865 5864 5862 5860 5857 5854 5852 5850 5849 5848 5848 5849 5848 5849 5848 5848 5847 5847 5847 5847 5846 5846 5846 5846 5845 5845 5844
5906 5906 5905 5903 5902 5901 5898 5896 5894 5892 5890 5887 5885 5883 5880 5877 5875 5875 5875 5873 5870 5866 5863 5860 5857 5856 5854 5853 5850 5847 5845 5843 5842 5842 5841 5841 5841 5840 5840 5840 5840 5840 5840 5840 5840 5841 5841 5840 5840
5905 5906 5905 5902 5901 5900 5898 5896 5894 5892 5889 5887 5885 5882 5878 5876 5873 5871 5870 5869 5868 5864 5860 5857 5855 5852 5850 5847 5845 5845 5843 5842 5840 5838 5835 5833 5832 5832 5832 5833 5833 5833 5834 5834 5834 5834 5835 5836 5836
5904 5905 5902 5901 5899 5898 5897 5895 5893 5892 5889 5885 5883 5880 5876 5873 5869 5868 5867 5863 5859 5857 5855 5852 5849 5847 5844 5843 5842 5840 5839 5838 5835 5832 5829 5827 5826 5825 5825 5825 5825 5825 5825 5826 5827 5828 5828 5829 5829
5902 5903 5901 5899 5897 5897 5896 5895 5893 5887 5882 5881 5879 5876 5873 5869 5868 5866 5863 5859 5855 5853 5850 5848 5845 5842 5840 5838 5835 5834 5831 5829 5827 5821 5820 5819 5817 5818 5818 5817 5816 5815 5816 5816 5817 5818 5819 5821 5823
5903 5901 5899 5898 5896 5895 5894 5892 5887 5881 5876 5875 5874 5871 5870 5868 5866 5862 5857 5853 5850 5847 5844 5841 5837 5836 5834 5831 5827 5825 5822 5820 5817 5816 5816 5813 5809 5807 5807 5807 5807 5806 5806 5806 5807 5807 5808 5809 5813
5902 5899 5897 5895 5893 5893 5892 5888 5881 5880 5878 5873 5868 5867 5867 5864 5861 5857 5854 5850 5846 5844 5841 5836 5833 5830 5826 5823 5822 5819 5816 5812 5810 5806 5807 5806 5801 5797 5797 5796 5796 5797 5796 5796 5797 5798 5798 5799 5801
5899 5897 5893 5891 5890 5888 5889 5881 5876 5876 5874 5868 5866 5865 5863 5859 5858 5856 5851 5847 5844 5839 5835 5831 5828 5824 5821 5817 5814 5812 5809 5806 5803 5798 5795 5795 5794 5792 5790 5788 5782 5785 5786 5786 5785 5785 5786 5787 5787
5896 5893 5889 5888 5884 5882 5881 5875 5871 5868 5865 5863 5862 5861 5860 5858 5854 5851 5848 5846 5842 5838 5834 5830 5827 5822 5817 5812 5808 5804 5801 5798 5794 5789 5785 5779 5776 5772 5771 5772 5768 5767 5770 5775 5776 5775 5774 5774 5775
5891 5888 5884 5883 5881 5877 5873 5867 5864 5861 5860 5860 5859 5858 5855 5853 5850 5847 5843 5840 5836 5832 5828 5825 5822 5818 5813 5808 5803 5798 5794 5789 5785 5781 5776 5771 5767 5763 5759 5756 5755 5756 5754 5755 5759 5761 5762 5763 5763
5886 5881 5878 5877 5874 5869 5864 5859 5855 5856 5858 5857 5855 5853 5851 5849 5846 5843 5840 5835 5831 5828 5824 5820 5816 5813 5809 5803 5797 5791 5785 5780 5776 5771 5767 5763 5758 5754 5751 5747 5745 5743 5742 5738 5739 5742 5747 5749 5750
5880 5877 5875 5871 5868 5862 5858 5851 5852 5854 5855 5853 5851 5849 5848 5845 5842 5838 5835 5832 5828 5822 5817 5812 5807 5802 5797 5793 5788 5782 5775 5769 5763 5757 5751 5747 5744 5740 5737 5733 5730 5727 5721 5718 5727 5722 5725 5732 5735
5873 5871 5867 5865 5860 5858 5855 5853 5850 5852 5850 5849 5846 5845 5844 5841 5837 5835 5832 5827 5822 5816 5810 5804 5797 5791 5785 5780 5775 5770 5764 5757 5750 5743 5738 5733 5727 5724 5721 5719 5717 5711 5709 5709 5705 5707 5707 5712 5721
5868 5864 5861 5858 5854 5854 5853 5851 5848 5849 5847 5845 5844 5841 5839 5836 5833 5830 5825 5821 5815 5809 5802 5795 5789 5783 5775 5768 5763 5756 5749 5742 5735 5729 5723 5719 5716 5709 5701 5699 5697 5698 5694 5696 5699 5699 5703 5697 5701
5863 5859 5856 5850 5849 5849 5850 5848 5847 5846 5844 5842 5840 5837 5834 5830 5826 5822 5816 5811 5805 5799 5792 5785 5778 5770 5762 5755 5746 5740 5732 5725 5718 5711 5708 5704 5701 5697 5691 5684 5678 5676 5676 5676 5681 5684 5685 5682 5688
5857 5853 5851 5847 5846 5845 5845 5844 5843 5842 5840 5837 5834 5830 5826 5822 5818 5812 5805 5799 5792 5786 5780 5774 5766 5759 5750 5740 5731 5724 5717 5710 5704 5697 5687 5685 5682 5678 5673 5669 5665 5660 5658 5658 5662 5668 5672 5670 5675
5853 5849 5847 5845 5844 5844 5843 5842 5841 5839 5836 5833 5830 5825 5821 5815 5807 5801 5795 5788 5782 5774 5766 5760 5753 5746 5737 5727 5717 5709 5701 5690 5684 5676 5671 5661 5659 5659 5655 5650 5647 5645 5642 5642 5644 5647 5652 5658 5658
5848 5845 5843 5840 5842 5841 5839 5838 5837 5834 5829 5827 5823 5819 5813 5806 5798 5791 5784 5777 5769 5761 5752 5742 5734 5726 5717 5709 5699 5690 5680 5671 5663 5655 5650 5644 5636 5632 5633 5630 5628 5627 5624 5625 5627 5630 5633 5639 5643
5844 5842 5840 5838 5836 5836 5835 5834 5831 5828 5825 5822 5817 5810 5803 5795 5788 5780 5772 5763 5755 5746 5737 5726 5715 5705 5694 5686 5676 5666 5659 5651 5639 5630 5623 5615 5612 5609 5607 5605 5605 5606 5607 5608 5611 5613 5617 5621 5627
5840 5838 5836 5835 5833 5831 5830 5829 5825 5822 5819 5814 5806 5801 5794 5786 5778 5770 5762 5753 5742 5731 5720 5709 5697 5687 5677 5666 5657 5644 5631 5623 5613 5603 5591 5584 5578 5576 5578 5578 5579 5581 5585 5589 5593 5596 5599 5603 5610
5836 5834 5832 5831 5828 5827 5825 5823 5819 5814 5811 5804 5798 5791 5784 5777 5768 5758 5748 5738 5727 5716 5705 5695 5684 5672 5659 5645 5632 5616 5601 5591 5585 5575 5567 5559 5551 5547 5546 5547 5548 5553 5560 5567 5573 5578 5582 5585 5593
5832 5831 5828 5827 5824 5822 5819 5815 5811 5808 5802 5796 5789 5781 5774 5766 5757 5747 5737 5727 5716 5705 5693 5680 5666 5653 5637 5622 5607 5593 5582 5574 5568 5560 5551 5542 5534 5528 5524 5521 5520 5524 5533 5543 5552 5559 5566 5570 5574
5828 5827 5824 5821 5818 5816 5812 5808 5805 5800 5792 5786 5778 5772 5765 5755 5745 5736 5724 5713 5701 5688 5675 5661 5646 5631 5615 5601 5587 5578 5570 5564 5557 5548 5539 5527 5519 5514 5509 5506 5503 5505 5510 5521 5531 5539 5548 5554 5559
5822 5821 5819 5816 5813 5810 5805 5801 5796 5790 5782 5776 5769 5761 5752 5743 5735 5726 5715 5702 5689 5674 5659 5643 5626 5609 5593 5582 5573 5566 5559 5554 5548 5539 5528 5517 5509 5504 5500 5497 5495 5494 5497 5505 5516 5522 5530 5538 5544
5817 5815 5812 5808 5805 5801 5797 5792 5786 5781 5773 5765 5758 5751 5743 5735 5725 5714 5702 5689 5674 5658 5642 5625 5606 5589 5577 5568 5562 5557 5553 5547 5540 5530 5520 5511 5504 5499 5493 5490 5489 5489 5490 5495 5502 5511 5515 5523 5531
5813 5810 5806 5802 5799 5793 5790 5787 5781 5773 5766 5759 5752 5743 5734 5724 5714 5703 5689 5675 5660 5643 5627 5612 5592 5580 5570 5563 5559 5554 5548 5541 5533 5523 5513 5506 5499 5493 5489 5487 5486 5485 5486 5489 5493 5499 5505 5510 5517
5807 5804 5800 5797 5794 5788 5783 5784 5774 5767 5760 5752 5743 5733 5724 5714 5704 5693 5680 5666 5649 5633 5614 5599 5585 5575 5567 5561 5557 5551 5543 5535 5526 5516 5508 5501 5495 5489 5486 5484 5481 5481 5482 5483 5484 5489 5494 5500 5507